| time (UTC) | temp F | wind direction | speed MPH | gust MPH | rain 1hr in | rain 24hr in | rain mn in | humidity % | barometer mb |
| 20260503210051 | 80 | 153 | 4.0 | 10.0 | 0.00 | 0.00 | 0.00 | 52 | 1018.4 |
| 20260503204521 | 80 | 120 | 5.0 | 10.0 | 0.00 | 0.00 | 0.00 | 48 | 1018.7 |
| 20260503203050 | 79 | 163 | 5.0 | 10.0 | 0.00 | 0.00 | 0.00 | 50 | 1018.9 |
| 20260503201623 | 80 | 144 | 2.0 | 0.0 | 0.00 | 0.00 | 0.00 | 48 | 1019.1 |
| 20260503200051 | 0 | 0.0 | 0.0 | 0.00 | 0.00 | 0.00 | 1019.2 | ||
| 20260503194557 | 0 | 0.0 | 0.0 | 0.00 | 0.00 | 0.00 | 1019.5 | ||
| 20260503191511 | 79 | 35 | 0.0 | 5.0 | 0.00 | 0.00 | 0.00 | 49 | 1020.0 |
| 20260503190059 | 0 | 0.0 | 0.0 | 0.00 | 0.00 | 0.00 | 1020.3 | ||
| 20260503184625 | 0 | 0.0 | 0.0 | 0.00 | 0.00 | 0.00 | 1020.4 | ||
| 20260503183038 | 0 | 0.0 | 0.0 | 0.00 | 0.00 | 0.00 | 1020.6 | ||
| 20260503181646 | 78 | 198 | 1.0 | 5.0 | 0.00 | 0.00 | 0.00 | 53 | 1020.8 |
| 20260503180038 | 77 | 212 | 6.0 | 8.0 | 0.00 | 0.00 | 0.00 | 54 | 1021.0 |
| 20260503174524 | 0 | 0.0 | 0.0 | 0.00 | 0.00 | 0.00 | 1021.4 | ||
| 20260503171614 | 0 | 0.0 | 0.0 | 0.00 | 0.00 | 0.00 | 1021.9 | ||
| 20260503150105 | 70 | 206 | 3.0 | 5.0 | 0.00 | 0.00 | 0.00 | 70 | 1022.4 |
| 20260503081527 | 0 | 0.0 | 0.0 | 0.00 | 0.00 | 0.00 | 1020.0 | ||
| 20260503070114 | 0 | 0.0 | 0.0 | 0.00 | 0.00 | 0.00 | 1020.6 | ||
| 20260503054550 | 0 | 0.0 | 0.0 | 0.00 | 0.00 | 0.00 | 1020.5 | ||
| 20260503051540 | 0 | 0.0 | 0.0 | 0.00 | 0.00 | 0.00 | 1020.6 | ||
| 20260503050052 | 0 | 0.0 | 0.0 | 0.00 | 0.00 | 0.00 | 1020.5 | ||
| 20260503043016 | 0 | 0.0 | 0.0 | 0.00 | 0.00 | 0.00 | 1020.5 | ||
| 20260503041639 | 0 | 0.0 | 0.0 | 0.00 | 0.00 | 0.00 | 1020.5 | ||
| 20260503040048 | 0 | 0.0 | 0.0 | 0.00 | 0.00 | 0.00 | 1020.3 | ||
| 20260503034540 | 0 | 0.0 | 0.0 | 0.00 | 0.00 | 0.00 | 1020.3 | ||
| 20260503031551 | 0 | 0.0 | 0.0 | 0.00 | 0.00 | 0.00 | 1019.9 | ||
| 20260503024539 | 0 | 0.0 | 0.0 | 0.00 | 0.00 | 0.00 | 1019.5 | ||
| 20260503023018 | 59 | 345 | 0.0 | 0.0 | 0.00 | 0.00 | 0.00 | 90 | 1019.5 |
| 20260503021554 | 60 | 345 | 0.0 | 0.0 | 0.00 | 0.00 | 0.00 | 89 | 1019.5 |
| 20260503020032 | 61 | 345 | 0.0 | 0.0 | 0.00 | 0.00 | 0.00 | 88 | 1019.2 |
| 20260503014552 | 63 | 345 | 0.0 | 0.0 | 0.00 | 0.00 | 0.00 | 85 | 1019.1 |
| 20260503013028 | 64 | 345 | 0.0 | 0.0 | 0.00 | 0.00 | 0.00 | 80 | 1019.0 |
| 20260503011517 | 66 | 345 | 0.0 | 0.0 | 0.00 | 0.00 | 0.00 | 78 | 1018.7 |
| 20260503010046 | 69 | 345 | 0.0 | 0.0 | 0.00 | 0.00 | 0.00 | 74 | 1018.6 |
| 20260503004602 | 73 | 345 | 0.0 | 0.0 | 0.00 | 0.00 | 0.00 | 65 | 1018.5 |
| 20260503003037 | 74 | 345 | 0.0 | 0.0 | 0.00 | 0.00 | 0.00 | 58 | 1018.4 |
| 20260503001514 | 75 | 353 | 0.0 | 4.0 | 0.00 | 0.00 | 0.00 | 55 | 1018.3 |
| 20260503000059 | 76 | 321 | 3.0 | 5.0 | 0.00 | 0.00 | 0.00 | 53 | 1018.3 |
| 20260502234549 | 77 | 359 | 1.0 | 6.0 | 0.00 | 0.00 | 0.00 | 52 | 1018.3 |
| 20260502233021 | 76 | 9 | 4.0 | 6.0 | 0.00 | 0.00 | 0.00 | 53 | 1018.2 |
| 20260502231511 | 76 | 30 | 4.0 | 7.0 | 0.00 | 0.00 | 0.00 | 50 | 1018.2 |
| 20260502230052 | 76 | 342 | 4.0 | 8.0 | 0.00 | 0.00 | 0.00 | 52 | 1018.2 |
| 20260502224513 | 74 | 13 | 7.0 | 12.0 | 0.00 | 0.00 | 0.00 | 52 | 1018.3 |
| 20260502223050 | 74 | 349 | 5.0 | 10.0 | 0.00 | 0.00 | 0.00 | 54 | 1018.3 |
| 20260502221526 | 74 | 33 | 6.0 | 11.0 | 0.00 | 0.00 | 0.00 | 55 | 1018.4 |
| 20260502220147 | 74 | 27 | 0.0 | 3.0 | 0.00 | 0.00 | 0.00 | 56 | 1018.5 |
| 20260502214522 | 74 | 15 | 0.0 | 2.0 | 0.00 | 0.00 | 0.00 | 54 | 1018.6 |
| 20260502213102 | 74 | 353 | 0.0 | 2.0 | 0.00 | 0.00 | 0.00 | 57 | 1018.7 |
| 20260502213010 | 74 | 31 | 0.0 | 2.0 | 0.00 | 0.00 | 0.00 | 56 | 1018.7 |
| 20260502211536 | 74 | 36 | 0.0 | 0.0 | 0.00 | 0.00 | 0.00 | 57 | 1018.9 |